Home   Weather   Kingston   Past weeks

Flag for Norfolk Island Past Weather in Kingston, Norfolk Island — Yesterday and Last 2 Weeks

Now
79 °F

Passing clouds.


Feels Like: 81 °F
Forecast: 67 / 73 °F
Wind: 16 mph from West

Location: Norfolk Island Airport

Current Time: Jan 19, 2017 at 1:28:26 pm

Latest Report: Jan 19, 2017 at 12:30 pm


Visibility: N/A

Pressure: 29.74 "Hg

Humidity: 61%

Dew Point: 64 °F

Location of KingstonLocation

Past Weather in Kingston — Graph

°F

Kingston Temperature Yesterday

Maximum temperature yesterday: 75 °F (at 11:30 am)
Minimum temperature yesterday: 63 °F (at 5:00 am)
Average temperature yesterday: 69 °F

High & Low Weather Summary for the Past Weeks

 TemperatureHumidityPressure
High81 °F (Jan 15, 3:30 pm)100% (Jan 6, 5:30 am)30.07 "Hg (Jan 6, 5:30 am)
Low63 °F (Jan 18, 5:00 am)50% (Jan 18, 1:00 pm)29.77 "Hg (Jan 19, 4:00 am)
Average71 °F77%29.95 "Hg
* Reported Jan 4 12:00 pm — Jan 19 12:00 pm, Kingston, Weather by CustomWeather, © 2017

Note: Actual official high and low records may vary slightly from our data, if they occured in-between our weather recording intervals... More about our weather records

Advertising

Kingston Weather History for the Previous 24 Hours

Scroll right to see more
 ConditionsComfort  
Time TempWeatherWind HumidityBarometerVisibility
12:00 pm
Thu, Jan 19
77 °FSunny.15 mph65%29.77 "HgN/A
11:30 am77 °FPassing clouds.16 mph65%29.77 "HgN/A
11:00 am77 °FSunny.17 mph61%29.77 "HgN/A
10:30 am77 °FPassing clouds.20 mph61%29.77 "HgN/A
10:00 am75 °FPassing clouds.20 mph65%29.77 "HgN/A
9:30 am75 °FScattered clouds.20 mph65%29.77 "HgN/A
9:00 am77 °FPassing clouds.17 mph65%29.77 "HgN/A
8:00 am73 °FScattered clouds.15 mph69%29.80 "HgN/A
7:30 am73 °FScattered clouds.16 mph69%29.80 "HgN/A
7:00 am72 °FScattered clouds.14 mph69%29.80 "HgN/A
6:30 am72 °FBroken clouds.12 mph69%29.80 "HgN/A
6:00 am70 °FBroken clouds.12 mph69%29.80 "HgN/A
5:30 am70 °FSunny.12 mph69%29.80 "HgN/A
5:00 am68 °FPassing clouds.10 mph69%29.80 "HgN/A
4:30 am70 °FPassing clouds.13 mph64%29.77 "HgN/A
4:00 am68 °FPartly cloudy.9 mph73%29.77 "HgN/A
3:30 am68 °FPartly cloudy.9 mph69%29.80 "HgN/A
3:00 am68 °FPassing clouds.8 mph69%29.80 "HgN/A
2:30 am66 °FPassing clouds.7 mph68%29.80 "HgN/A
2:00 am64 °FClear.6 mph73%29.80 "HgN/A
1:30 am64 °FClear.6 mph78%29.83 "HgN/A
1:00 am64 °FClear.5 mph78%29.83 "HgN/A
12:30 am64 °FClear.5 mph78%29.86 "HgN/A
12:00 am66 °FClear.5 mph73%29.86 "HgN/A
11:30 pm
Wed, Jan 18
64 °FClear.6 mph73%29.86 "HgN/A
11:00 pm66 °FClear.6 mph68%29.86 "HgN/A
10:00 pm66 °FClear.5 mph68%29.89 "HgN/A
9:30 pm66 °FClear.6 mph68%29.92 "HgN/A
9:00 pm64 °FClear.7 mph73%29.92 "HgN/A
8:30 pm66 °FClear.No wind73%29.92 "HgN/A
8:00 pm66 °FPassing clouds.No wind73%29.92 "HgN/A
7:30 pm68 °FOvercast.No wind69%29.92 "HgN/A
7:00 pm68 °FPassing clouds.2 mph69%29.92 "HgN/A
6:30 pm70 °FOvercast.6 mph60%29.89 "HgN/A
6:00 pm70 °FScattered clouds.6 mph64%29.89 "HgN/A
5:30 pm72 °FSunny.7 mph57%29.89 "HgN/A
5:00 pm72 °FSunny.7 mph61%29.89 "HgN/A
4:30 pm73 °FSunny.8 mph53%29.89 "HgN/A
4:00 pm73 °FPassing clouds.8 mph53%29.89 "HgN/A
3:30 pm73 °FPassing clouds.9 mph53%29.89 "HgN/A
3:00 pm73 °FPassing clouds.8 mph53%29.92 "HgN/A
2:30 pm73 °FPassing clouds.9 mph57%29.92 "HgN/A
2:00 pm73 °FPassing clouds.9 mph57%29.95 "HgN/A
1:30 pm73 °FPassing clouds.9 mph53%29.95 "HgN/A
1:00 pm73 °FPassing clouds.8 mph50%29.95 "HgN/A
Weather by CustomWeather, © 2017

See weather overviewHow to use our weather pages